CAPE
0 0 0 0 0 0 0 0 0 0 0 0 0 0 0 0 0 0 0 0 0 2 3 4 6 13 17 22 27 34 31 31 49 48 61 85 89 86
0 0 0 0 0 0 0 0 0 0 0 0 0 0 0 0 0 0 0 0 0 0 0 3 10 16 21 24 30 31 39 50 43 70 67 85 83 94
0 0 0 0 0 0 0 0 0 0 0 0 0 0 0 0 0 0 0 0 0 0 0 3 11 14 13 17 22 29 34 36 52 66 81 81 92 79
0 0 0 0 0 0 0 0 0 0 0 0 0 0 0 0 0 0 0 0 0 0 0 8 6 8 12 19 23 28 33 42 48 51 47 47 62 63
0 0 0 0 0 0 0 0 0 0 0 0 0 0 0 0 0 0 0 0 0 0 0 0 2 4 8 9 18 25 21 23 27 29 31 35 36 41
0 0 0 0 0 0 0 0 0 0 0 0 0 0 0 0 0 1 2 0 0 0 0 0 1 1 1 2 3 3 3 7 13 19 30 28 24 25
1 1 0 0 1 0 1 0 0 0 0 0 2 2 5 5 4 2 2 3 3 2 0 0 0 0 0 0 0 0 1 6 15 24 27 38 44 62
1 0 0 0 0 0 0 0 0 0 0 0 4 5 4 1 1 3 7 9 6 0 0 3 0 0 0 0 0 0 1 5 15 25 27 33 43 54
0 0 0 0 0 0 0 0 0 0 3 5 3 0 1 0 8 2 12 13 12 2 4 4 0 0 0 0 0 0 4 7 8 21 27 26 25 44
0 0 0 0 0 0 0 0 0 0 0 0 0 1 2 3 7 13 15 12 6 1 0 4 0 0 0 0 0 0 0 1 6 15 25 22 22 30
0 0 0 0 0 3 3 0 0 0 0 0 0 1 2 1 1 5 7 5 3 0 0 0 0 1 2 0 0 0 0 1 0 3 8 13 22 26
0 0 0 0 3 5 1 0 0 0 0 0 0 0 0 0 0 0 2 6 5 2 0 3 0 4 4 0 0 0 0 0 0 1 4 8 11 18
0 0 0 2 3 1 1 0 0 1 0 0 0 0 0 0 0 0 1 7 4 8 0 8 8 8 8 7 0 0 1 0 0 0 1 3 5 14
0 0 0 0 0 0 0 0 2 0 0 0 0 0 0 0 0 0 0 1 3 10 4 10 8 7 10 11 8 1 5 5 10 2 1 2 3 6
0 0 0 0 0 0 0 0 0 0 0 0 1 1 1 1 3 2 1 2 3 3 4 2 5 7 11 9 9 6 11 2 9 9 3 5 6 3
0 0 0 0 0 0 0 0 0 0 1 2 2 1 1 1 2 1 5 6 8 1 0 0 1 4 6 10 11 7 7 12 3 7 12 13 11 9
0 0 0 0 0 0 0 0 0 0 0 0 2 1 0 1 0 1 3 4 6 6 2 0 1 5 9 6 8 8 10 9 8 7 12 10 9 13
0 0 0 0 0 0 0 0 0 0 0 2 2 2 1 1 2 3 6 4 5 5 7 4 4 7 6 4 1 4 6 8 6 7 6 6 5 5
0 0 0 0 0 0 0 1 1 0 0 1 1 1 1 1 5 4 2 2 6 7 7 8 12 13 8 5 0 5 15 13 12 6 13 13 11 7
0 0 0 0 0 1 1 1 1 1 1 1 1 1 1 1 2 3 3 3 6 8 10 10 12 13 15 10 14 4 1 8 13 12 9 9 9 4
0 0 0 0 0 1 1 1 1 1 3 2 0 0 0 1 1 2 2 4 9 6 6 7 3 8 13 16 15 5 0 0 2 8 8 13 8 7
0 0 0 0 0 0 1 1 1 1 0 0 1 2 2 2 2 1 2 5 5 6 5 4 4 11 19 15 9 5 3 0 0 1 2 3 6 8
0 0 0 0 0 0 0 1 1 1 1 1 2 1 3 2 1 3 6 4 5 3 11 12 12 13 11 8 7 8 2 0 1 1 0 0 2 0
CIN
-0 -0 -0 -0 -0 -0 -0 -0 -0 -0 -0 -0 -0 -0 -0 -0 -0 -0 -0 -0 -0 -0 -0 -0 -0 -0 -0 -0 -0 -0 -0 -0 -0 -0 -0 -0 -0 -0
-0 -0 -0 -0 -0 -0 -0 -0 -0 -0 -0 -0 -0 -0 -0 -0 -0 -0 -0 -0 -0 -0 -0 -0 -0 -0 -0 -0 -0 -0 -0 -0 -0 -0 -0 -0 -0 -0
-0 -0 -0 -0 -0 -0 -0 -0 -0 -0 -0 -0 -0 -0 -0 -0 -0 -0 -0 -0 -0 -0 -0 -0 -0 -0 -0 -0 -0 -0 -0 -0 -0 -0 -0 -0 -0 -0
-0 -0 -0 -0 -0 -0 -0 -0 -0 -0 -0 -0 -0 -0 -0 -0 -0 -0 -0 -0 -0 -0 -0 -0 -0 -0 -0 -0 -0 -0 -0 -0 -0 -0 -0 -0 -0 -0
-0 -0 -0 -0 -0 -0 -0 -0 -0 -0 -0 -0 -0 -0 -0 -0 -0 -0 -0 -0 -0 -0 -0 -0 -0 -0 -0 -0 -0 -0 -0 -0 -0 -0 -0 -0 -0 -0
-0 -0 -0 -0 -0 -0 -0 -0 -0 -0 -0 -0 -0 -0 -0 -0 -0 -0 -0 -0 -0 -0 -0 -0 -0 -0 -0 -0 -0 -0 -0 -0 -0 -0 -0 -0 -0 -0
-0 -0 -0 -0 -0 -0 -0 -0 -0 -0 -0 -0 -0 -0 -0 -0 -0 -0 -0 -0 -0 -0 -0 -0 -0 -0 -0 -0 -0 -0 -0 -0 -0 -0 -0 -0 -0 -0
-0 -0 -0 -0 -0 -0 -0 -0 -0 -0 -2 -0 -0 -0 -0 -0 -0 -0 -0 -0 -0 -0 -0 -0 -0 -0 -0 -0 -0 -0 -0 -0 -0 -0 -0 -0 -0 -0
-0 -0 -0 -0 -0 -0 -0 -0 -0 -0 -0 -0 -0 -0 -0 -0 -1 -0 -0 -0 -0 -0 -0 -0 -0 -0 -0 -0 -0 -0 -0 -0 -0 -0 -0 -0 -0 -0
-0 -0 -0 -0 -0 -0 -0 -0 -0 -0 -0 -0 -0 -0 -0 -0 -0 -0 -0 -0 -0 -0 -0 -0 -0 -0 -0 -0 -0 -0 -0 -0 -0 -0 -0 -0 -0 -0
-0 -0 -0 -0 -0 -0 -1 -0 -0 -0 -0 -0 -0 -0 -0 -0 -0 -0 -0 -0 -0 -0 -0 -0 -0 -0 -0 -0 -0 -0 -0 -0 -0 -0 -0 -0 -0 -0
-0 -0 -0 -0 -0 -0 -0 -0 -0 -0 -0 -0 -0 -0 -0 -0 -0 -0 -0 -0 -0 -0 -0 -0 -0 -0 -0 -0 -0 -0 -0 -0 -0 -0 -0 -0 -0 -0
-0 -0 -0 -0 -0 -0 -0 -0 -0 -0 -0 -0 -0 -0 -0 -0 -0 -0 -0 -0 -0 -0 -0 -0 -0 -0 -0 -0 -0 -0 -0 -0 -0 -0 -0 -0 -0 -0
-0 -0 -0 -0 -0 -0 -0 -0 -0 -0 -0 -0 -0 -0 -0 -0 -0 -0 -0 -0 -0 -0 -0 -0 -0 -0 -0 -0 -0 -0 -0 -0 -0 -0 -0 -0 -0 -0
-0 -0 -0 -0 -0 -0 -0 -0 -0 -0 -0 -0 -0 -0 -0 -0 -0 -0 -0 -0 -0 -0 -0 -0 -0 -0 -0 -0 -0 -0 -0 -0 -0 -0 -0 -0 -0 -0
-0 -0 -0 -0 -0 -0 -0 -0 -0 -0 -0 -0 -0 -0 -0 -0 -0 -0 -0 -0 -0 -0 -0 -0 -0 -0 -0 -0 -0 -0 -0 -0 -0 -0 -0 -0 -0 -0
-0 -0 -0 -0 -0 -0 -0 -0 -0 -0 -0 -0 -0 -0 -0 -0 -0 -0 -0 -0 -0 -0 -0 -0 -0 -0 -0 -0 -0 -0 -0 -0 -0 -0 -0 -0 -0 -0
-0 -0 -0 -0 -0 -0 -0 -0 -0 -0 -0 -0 -0 -0 -0 -0 -0 -0 -0 -0 -0 -0 -0 -0 -0 -0 -0 -0 -0 -0 -0 -0 -0 -0 -0 -0 -0 -0
-0 -0 -0 -0 -0 -0 -0 -0 -0 -0 -0 -0 -0 -0 -0 -0 -0 -0 -0 -0 -0 -0 -0 -0 -0 -0 -0 -0 -0 -0 -0 -0 -0 -0 -0 -0 -0 -0
-0 -0 -0 -0 -0 -0 -0 -0 -0 -0 -0 -0 -0 -0 -0 -0 -0 -0 -0 -0 -0 -0 -0 -0 -0 -0 -0 -0 -0 -0 -0 -0 -0 -0 -0 -0 -0 -0
-0 -0 -0 -0 -0 -0 -0 -0 -0 -0 -0 -0 -0 -0 -0 -0 -0 -0 -0 -0 -0 -0 -0 -0 -0 -0 -0 -0 -0 -0 -0 -0 -0 -0 -0 -0 -0 -0
-0 -0 -0 -0 -0 -0 -0 -0 -0 -0 -0 -0 -0 -0 -0 -0 -0 -0 -0 -0 -0 -0 -0 -0 -0 -0 -0 -0 -0 -0 -0 -0 -0 -0 -0 -0 -0 -0
-0 -0 -0 -0 -0 -0 -0 -0 -0 -0 -0 -0 -0 -0 -0 -0 -0 -0 -0 -0 -0 -0 -0 -0 -0 -0 -0 -0 -0 -0 -0 -0 -0 -0 -0 -0 -0 -0
Wind_Speed
6 6 4 3 3 3 2 2 1 3 2 2 3 5 4 4 6 8 9 12 16 18 21 23 22 22 23 24 24 25 25 26 25 25 25 26 26 26
6 8 5 5 4 4 2 3 1 1 1 2 2 2 3 5 8 9 10 14 16 19 21 22 22 22 23 23 24 24 24 26 25 26 27 27 26 26
8 8 7 7 3 4 3 2 0 2 3 2 2 2 4 8 9 8 8 9 9 18 22 22 21 22 23 23 24 24 25 25 26 26 27 26 27 26
9 10 9 6 4 1 2 3 2 4 3 7 3 3 5 8 10 10 8 8 11 16 22 22 23 23 22 22 23 23 23 24 25 26 27 28 28 28
9 8 6 6 4 2 4 4 4 3 3 3 5 3 4 5 9 9 8 11 9 18 19 21 20 20 21 22 24 24 25 27 27 27 28 28 28 28
8 7 5 3 3 2 4 4 3 3 4 5 6 7 6 7 7 8 10 9 10 11 15 16 19 20 24 24 25 25 25 25 26 27 27 27 27 28
7 5 3 5 6 6 3 4 6 5 4 5 6 7 7 8 10 9 10 10 11 11 10 9 11 11 13 18 19 22 23 24 26 26 26 27 26 27
5 3 3 3 2 3 7 9 7 5 4 4 6 8 10 10 9 9 10 10 11 7 8 12 12 12 12 11 19 24 27 27 26 26 26 27 26 27
5 4 3 1 2 5 7 8 8 9 9 9 10 10 11 11 9 11 11 11 11 12 13 13 11 12 11 11 22 26 27 27 26 25 24 23 23 23
6 3 3 3 4 6 7 6 4 4 6 6 9 10 10 10 9 9 12 13 12 12 10 10 10 11 12 11 23 26 26 25 25 24 24 24 24 25
3 2 2 3 7 9 5 3 6 7 8 12 12 14 16 18 14 9 8 9 9 11 10 9 9 12 12 12 11 17 20 22 25 27 26 25 25 26
1 3 7 7 9 11 8 5 6 9 8 7 8 11 11 10 13 7 6 8 8 8 2 4 10 10 7 7 7 10 12 20 24 26 26 26 26 12
3 4 3 8 11 11 10 4 7 9 5 7 8 7 7 7 6 6 7 7 8 9 12 8 7 10 8 10 10 10 11 13 12 14 21 23 22 18
3 3 3 10 10 11 8 10 11 8 5 5 6 7 7 8 8 8 11 11 10 14 16 11 8 9 10 12 14 10 10 11 11 12 11 15 20 21
3 5 9 10 10 7 9 9 7 4 4 5 6 7 7 8 10 10 10 12 12 13 12 13 11 12 10 11 13 15 14 9 11 11 10 10 11 10
3 4 7 7 7 7 6 5 4 4 5 6 6 8 7 6 9 8 9 9 10 10 7 10 12 12 11 12 12 15 13 9 10 10 10 10 10 11
4 3 4 5 5 5 5 5 5 5 5 6 7 7 8 8 9 8 8 9 9 11 12 10 9 12 12 15 14 12 13 13 11 12 11 12 11 11
3 3 4 4 4 5 5 6 6 7 6 7 7 7 8 9 9 9 8 9 10 10 11 11 11 11 9 10 22 14 12 13 12 12 11 12 13 10
2 3 3 4 5 5 5 6 7 7 7 7 7 8 8 8 11 9 9 9 10 10 10 10 10 10 12 14 8 14 11 12 13 13 11 11 13 13
2 3 4 5 5 6 6 6 7 7 7 7 7 8 8 8 9 9 9 11 11 11 11 10 9 9 10 13 16 15 16 11 10 12 13 11 13 24
3 4 4 5 6 6 7 7 8 8 8 7 8 8 8 8 9 10 10 19 18 11 12 12 11 23 11 11 10 12 11 13 14 13 13 12 12 11
4 5 5 5 6 6 7 7 8 8 8 7 8 8 8 8 10 11 11 12 11 11 12 11 11 10 9 10 14 17 13 11 14 20 20 21 10 9
5 5 6 6 6 7 7 7 8 8 8 8 8 8 8 9 10 11 11 12 12 11 12 13 11 10 10 10 15 13 19 16 12 13 12 13 20 24
Wind_Direction
128 122 117 115 101 93 82 164 184 179 200 197 200 186 214 233 273 297 295 295 297 301 305 304 302 298 294 290 289 288 289 287 287 286 281 279 279 275
110 111 100 78 55 20 35 57 63 70 181 206 225 205 230 273 282 289 295 294 295 297 301 301 300 298 293 289 287 286 284 284 287 283 280 278 277 277
110 109 102 104 76 82 59 47 70 121 210 245 236 272 283 290 297 299 298 297 295 297 301 304 301 296 296 295 292 290 289 290 285 281 279 280 278 280
87 85 81 76 66 20 94 226 237 244 199 253 283 269 268 295 294 294 293 294 298 298 300 301 301 300 297 297 293 289 286 285 287 287 286 282 281 278
103 103 117 136 154 190 209 223 227 228 236 254 285 272 275 279 296 294 297 299 296 293 296 298 297 296 294 292 295 295 292 288 286 283 281 280 275 274
92 94 98 113 111 268 248 253 263 267 259 263 273 279 282 308 294 297 304 303 302 298 295 294 291 291 291 293 293 288 286 285 282 281 280 277 274 273
91 104 147 187 195 211 227 239 242 256 280 278 280 294 308 301 309 310 298 304 307 293 293 297 297 295 287 290 287 287 285 282 281 279 278 276 275 275
120 137 201 127 182 273 274 277 280 292 269 282 295 298 304 305 304 302 303 311 315 289 300 298 292 288 285 285 286 284 283 286 286 284 283 280 278 274
144 143 120 180 237 257 280 302 305 300 300 308 308 303 298 298 295 293 298 298 292 292 297 294 291 284 282 279 282 285 289 290 288 287 283 280 276 274
102 138 215 281 303 293 273 267 277 295 307 305 291 286 282 284 284 286 296 294 287 285 291 284 294 291 295 287 283 284 284 286 289 290 288 287 289 283
135 215 264 335 304 307 326 341 316 309 298 297 301 303 304 305 306 304 295 303 301 297 298 275 285 302 298 286 275 271 275 283 289 291 290 289 285 282
67 25 359 332 322 331 339 332 310 303 304 308 309 309 314 306 307 296 288 285 295 297 348 273 300 315 303 287 281 285 283 282 285 285 286 287 286 281
19 0 345 327 335 330 324 325 300 307 337 319 314 310 311 308 305 300 289 276 278 266 276 293 289 294 274 294 289 284 284 284 283 283 284 284 283 278
14 334 320 336 335 337 338 319 327 343 320 312 310 308 311 311 310 306 297 284 268 259 277 278 270 273 276 282 288 290 286 286 282 280 284 281 279 276
345 4 350 346 342 341 331 339 341 319 310 308 306 301 300 297 297 294 288 280 269 263 260 259 254 267 262 269 276 288 291 290 286 277 272 270 273 274
46 0 357 358 353 343 342 337 323 315 308 307 304 303 303 302 299 298 295 300 299 294 275 256 246 250 263 262 268 275 282 279 291 280 278 273 269 260
18 7 359 354 348 341 333 327 324 319 317 318 312 312 307 307 299 299 286 290 282 297 303 299 277 259 252 262 274 270 278 278 271 277 279 276 268 261
27 351 343 343 339 330 326 326 323 319 317 313 308 303 299 300 299 298 294 292 289 290 291 297 302 299 280 250 234 267 269 273 276 273 263 267 274 266
9 339 326 329 324 319 315 314 308 308 305 301 298 295 292 289 302 297 293 291 290 289 290 291 290 294 301 301 294 267 282 281 292 289 279 271 274 278
324 324 324 322 316 311 311 308 306 307 307 299 295 293 293 292 295 290 294 295 293 294 300 300 291 292 295 297 303 301 263 271 278 286 290 281 273 275
320 311 307 306 304 306 303 302 298 297 296 303 297 288 287 289 286 287 289 297 303 296 295 299 299 296 285 288 285 288 296 270 260 275 288 289 292 291
305 301 301 297 298 302 301 299 297 299 301 298 291 287 284 282 284 290 291 296 296 290 288 290 295 299 297 300 296 299 300 300 293 278 267 265 275 282
297 297 297 293 294 295 294 295 289 289 288 285 285 283 285 287 285 286 289 290 289 287 298 303 302 300 296 299 294 297 297 301 302 302 292 265 265 266